Torna al catalogo

FENGYUN 1C DEB

AttivoSSO
NORAD 30979·DEBRIS·🇨🇳 China

Lanciato May 10, 1999 da Taiyuan Satellite Launch Center

Loading…

Prossimi Passaggi (prossime 24 ore)

TLE

AggiornatoSource: Space-Track

Epoca: Sep 14, 2026, 15:54 UTC

1 30979U 99025BBV 26257.66259279  .00007016  00000-0  64875-3 0  9998
2 30979  97.8026 154.6029 0180557  61.8502 329.5623 14.83230409 32073

Traccia FENGYUN 1C DEB in tempo reale con AllMySat

Download on the App Store